RH
18 27 31 36 40 46 40 27 26 19 19 20 22 28 42 59 56 44 80 79 81 84 97 98 98 96 99 99 97 99 97 99 99 99 100 99 89 84 83 77 71 44 8 3 5 15 26 60 93
19 28 35 40 38 43 37 24 21 20 23 22 20 28 39 60 72 81 89 90 82 85 98 98 98 97 99 99 99 99 99 99 99 98 95 91 82 72 73 55 27 21 10 4 4 15 25 58 90
22 28 34 44 38 26 31 21 20 17 18 16 23 32 43 65 75 81 81 92 90 89 97 99 97 98 98 99 99 100 96 99 86 63 64 64 55 45 35 23 18 15 13 5 6 32 61 76 94
23 26 26 34 32 22 24 22 18 16 13 15 24 44 50 58 74 71 88 93 91 90 93 99 98 99 100 98 99 99 100 86 52 27 26 24 18 17 10 8 12 14 14 6 7 35 75 92 96
26 29 36 33 23 19 20 19 17 16 14 16 18 35 55 58 59 68 85 92 87 77 97 99 98 99 99 99 100 92 65 38 12 9 8 6 6 7 6 7 8 9 14 8 7 24 61 95 88
28 27 34 30 25 19 17 16 16 16 15 19 24 34 45 60 59 85 90 88 82 68 90 97 97 98 98 99 84 27 18 12 8 6 5 4 4 5 6 6 7 8 14 12 5 19 46 67 71
40 33 27 25 20 18 17 15 17 16 15 17 21 39 57 76 81 84 84 81 80 79 76 97 97 98 99 97 27 18 12 8 6 4 4 4 4 4 4 5 7 9 14 16 7 6 19 20 30
30 39 27 23 21 19 17 15 15 14 16 17 20 41 61 83 84 83 81 81 86 87 84 68 100 99 89 29 22 16 10 6 5 4 4 4 4 3 4 4 6 8 11 14 16 9 4 4 5
26 37 32 25 24 21 17 16 14 14 15 18 21 22 25 78 80 81 84 92 92 89 80 61 51 46 41 27 20 13 8 6 5 5 5 5 4 4 4 4 4 5 6 8 12 14 13 7 4
29 36 27 25 24 20 19 18 14 14 19 26 26 24 32 76 80 80 87 91 90 85 82 65 52 42 37 27 19 12 8 7 6 6 6 6 6 5 4 4 4 4 5 5 6 7 11 15 14
28 34 26 27 23 19 19 18 17 17 17 19 23 32 48 76 79 79 83 79 81 81 80 71 54 45 35 28 20 13 9 7 8 9 10 11 11 11 8 6 5 4 6 6 7 7 8 9 9
22 23 22 24 18 16 16 17 15 15 16 15 16 20 39 68 78 77 78 80 82 83 78 74 59 47 43 32 22 14 10 9 10 14 14 14 14 13 12 11 9 8 8 8 9 8 8 8 9
20 22 22 22 16 17 19 19 19 20 16 15 21 32 38 56 73 76 76 79 80 82 83 80 67 53 41 34 27 18 12 10 14 16 15 16 16 15 14 13 13 12 11 10 9 8 7 7 7
21 21 20 19 22 23 24 27 25 23 20 19 23 29 35 44 64 75 76 78 81 82 83 80 71 58 36 37 32 22 14 12 16 17 17 17 17 16 15 14 13 12 11 11 11 10 9 8 7
21 22 24 24 24 29 27 28 34 24 24 23 26 28 34 40 57 65 73 76 78 81 80 78 70 58 37 37 37 27 16 14 18 18 19 19 19 20 18 17 16 15 15 14 13 12 10 9 8
26 32 33 32 32 30 28 24 22 25 25 30 29 30 32 38 44 58 69 74 77 78 80 77 70 61 41 36 39 29 18 15 18 20 20 20 21 23 24 23 22 22 20 19 16 12 11 11 11
38 30 37 33 35 34 32 23 25 26 28 29 30 29 30 32 42 52 64 73 76 76 75 76 72 62 40 34 40 32 20 17 19 20 22 22 23 25 27 26 25 25 24 23 19 15 15 14 14
32 37 30 31 34 35 36 42 33 28 30 28 29 29 29 29 30 39 57 71 73 73 73 73 74 64 37 32 42 35 24 18 20 21 23 23 24 27 29 28 26 26 24 24 25 21 19 18 19
23 24 24 24 33 32 37 38 33 26 29 30 29 29 28 27 28 35 52 64 68 70 73 74 71 57 33 31 38 36 26 20 19 21 23 25 26 28 30 30 28 28 26 25 26 26 27 28 33
25 26 27 33 34 32 32 38 33 32 30 29 29 28 26 29 30 36 53 62 64 66 72 72 68 51 33 27 33 37 31 25 22 21 23 25 27 29 32 32 31 31 30 28 28 27 26 29 34
32 30 32 33 34 34 39 36 29 26 30 29 31 27 25 27 30 33 52 59 62 65 68 70 64 53 33 29 39 46 41 33 27 23 23 25 28 30 32 34 34 34 34 33 33 33 31 28 29
27 39 36 37 44 50 44 51 32 27 32 34 38 29 27 30 31 33 47 58 61 62 66 66 63 57 38 33 37 37 36 34 29 24 23 24 27 30 32 34 36 37 38 38 37 36 35 34 31
32 40 42 49 74 56 48 68 39 36 38 30 31 39 34 32 31 32 38 46 53 57 63 64 62 58 40 35 37 36 39 39 36 32 28 26 26 29 30 32 34 36 38 39 38 38 38 37 36
42 49 65 80 75 71 58 61 38 45 40 40 44 41 36 33 32 31 33 39 46 56 60 61 60 55 40 38 41 39 39 43 45 40 34 30 28 29 30 31 32 33 34 36 37 38 39 39 39
56 50 62 61 83 64 59 73 57 42 53 50 51 43 40 35 33 33 35 42 49 52 56 57 57 53 43 44 45 42 47 50 49 44 38 33 31 30 31 31 31 32 33 35 37 39 41 41 40
55 53 67 32 72 64 49 72 62 41 51 48 44 42 40 40 38 36 36 37 39 42 46 52 53 53 49 46 46 46 54 56 55 49 42 39 37 35 34 34 35 34 34 36 38 41 43 44 45
59 76 57 77 74 81 50 44 44 44 51 57 53 46 46 48 47 44 41 40 41 42 44 47 50 51 52 50 51 53 60 58 53 52 55 52 48 42 39 39 38 36 36 38 43 47 46 47 51
64 63 66 84 40 65 58 44 57 59 53 56 59 54 49 47 50 51 51 50 50 49 48 50 51 51 52 55 57 58 59 58 61 69 67 62 54 49 46 42 40 39 39 45 49 49 51 56 52
80 76 80 76 76 72 73 61 76 76 72 67 60 58 55 48 47 54 56 56 57 58 59 59 61 63 64 65 65 62 62 68 73 75 74 64 59 58 54 48 44 44 48 50 52 58 59 49 37
87 83 81 73 58 93 86 79 63 83 78 76 71 64 65 64 58 53 53 60 63 64 65 68 72 74 75 74 74 73 76 79 81 79 74 70 73 63 64 54 51 57 57 57 63 56 41 31 29
Wind_Speed
8 8 8 3 3 4 2 2 4 2 2 2 8 9 10 7 3 3 19 14 11 14 16 12 12 12 11 13 12 13 12 11 13 13 13 13 13 12 13 12 12 11 12 11 11 12 12 14 15
8 8 4 2 4 2 4 3 1 2 10 17 11 9 7 3 6 16 23 17 13 13 16 13 13 11 12 12 12 12 12 13 12 12 13 12 12 10 11 10 10 10 10 12 12 14 14 15 15
8 7 1 4 3 3 4 3 5 3 12 2 6 10 4 5 12 23 14 21 17 13 16 15 14 12 12 12 12 11 12 11 11 10 10 10 10 10 9 9 9 9 10 11 13 16 17 16 15
6 4 3 4 3 3 5 6 5 6 5 3 14 7 6 6 20 13 22 21 17 14 15 16 14 12 12 12 11 13 11 10 8 9 8 8 8 9 9 8 9 9 10 11 12 16 17 15 13
4 3 3 3 4 1 1 6 10 3 3 5 4 5 5 13 9 14 23 20 14 13 17 17 14 13 13 11 11 11 10 8 8 7 7 7 7 9 10 9 9 10 11 12 12 15 16 15 13
2 3 4 2 4 1 1 4 6 3 4 6 8 7 5 10 14 24 20 16 10 11 17 17 14 14 14 12 10 10 9 8 7 7 7 7 8 8 10 11 11 11 12 12 13 14 15 13 11
5 4 4 3 2 3 2 2 3 6 5 3 11 5 9 17 22 22 18 13 11 10 10 17 15 14 13 13 11 10 9 8 8 8 8 8 8 9 10 11 12 12 13 13 13 13 13 11 10
2 4 1 1 3 3 1 3 5 4 3 8 5 7 7 31 24 23 17 15 12 11 8 13 16 16 15 13 11 10 9 8 8 9 9 10 9 10 10 11 12 13 13 12 12 11 9 8 9
3 4 1 2 2 3 2 3 2 5 8 4 4 7 4 36 28 25 24 22 18 14 9 12 12 11 11 11 10 10 10 9 9 9 10 10 11 11 11 11 12 13 12 12 11 10 10 9 9
4 4 6 1 1 3 2 2 5 4 4 2 4 7 21 36 30 29 30 28 23 18 13 11 12 12 12 11 10 10 9 10 10 10 10 10 11 12 12 13 12 12 12 13 13 11 12 11 12
4 4 4 3 1 1 2 2 2 7 4 9 12 20 32 37 32 29 30 26 22 17 15 12 13 12 12 11 11 10 10 10 10 10 10 10 10 12 12 13 15 14 15 15 15 15 15 14 14
3 2 2 3 2 2 2 1 3 8 4 6 11 18 31 37 34 31 30 27 23 19 15 12 12 12 12 11 11 10 9 9 10 10 11 11 11 12 13 14 16 16 17 17 17 16 17 16 16
3 3 2 2 2 1 1 4 5 6 8 7 17 23 27 32 35 31 27 24 22 20 17 13 12 11 12 12 10 10 9 10 10 11 12 12 12 13 14 16 18 18 19 18 19 18 18 17 17
3 4 2 2 2 0 1 2 1 4 13 13 21 23 25 28 34 32 32 29 25 22 19 16 14 12 13 12 10 9 9 10 11 12 12 13 13 14 15 18 19 20 20 20 19 18 18 19 18
3 2 1 4 3 1 2 6 8 6 17 19 21 21 24 26 30 33 33 32 29 26 23 20 18 15 14 13 11 10 10 10 11 12 13 13 14 15 16 18 20 20 20 19 18 19 19 19 19
1 4 2 1 5 1 2 8 3 12 22 22 20 22 23 25 28 30 31 30 28 26 25 22 19 16 16 14 12 11 11 11 12 13 13 14 14 15 16 17 18 19 18 17 18 19 20 20 19
4 2 3 3 7 2 3 6 2 16 21 20 22 24 24 23 25 27 29 29 28 27 25 23 21 19 18 16 14 13 13 13 13 13 14 14 14 15 14 15 17 17 17 17 17 19 16 18 19
5 3 3 3 3 3 3 11 7 13 21 24 24 23 25 26 25 25 27 29 29 29 25 22 21 21 21 19 17 16 15 15 15 14 14 14 14 14 14 15 16 16 16 17 17 16 16 16 15
1 2 3 2 2 2 6 9 10 13 21 24 23 22 26 26 22 24 26 28 30 30 28 25 23 24 24 23 21 19 18 17 17 16 15 15 15 14 14 14 15 15 14 15 15 14 14 15 13
3 3 4 0 1 1 4 11 13 7 13 27 31 25 27 25 21 26 31 30 31 30 29 26 24 25 25 22 19 17 17 17 16 17 17 16 15 15 15 14 14 14 13 13 13 10 11 11 8
1 4 3 4 2 1 5 8 5 2 1 8 20 28 23 28 24 26 32 32 31 30 29 26 24 24 24 22 20 20 19 19 20 20 19 18 17 16 15 15 14 14 13 12 12 10 8 7 7
3 3 2 3 4 3 3 5 6 4 5 6 2 12 17 25 23 24 30 32 30 28 25 24 23 23 24 24 23 24 23 23 21 19 20 19 18 17 16 16 15 14 13 12 11 10 7 6 4
3 2 3 4 5 4 1 4 8 4 4 3 5 3 12 19 22 22 24 26 26 23 23 22 22 23 25 25 24 23 22 20 18 19 20 20 20 19 18 17 16 15 13 12 11 9 7 6 3
4 5 7 5 3 2 5 4 5 3 4 6 4 5 7 14 19 18 19 22 22 22 22 22 23 23 25 25 24 24 22 21 21 21 22 21 21 21 20 19 17 16 15 13 11 10 8 6 4
5 5 2 4 3 5 2 3 6 3 4 2 5 11 9 7 16 17 19 21 22 22 23 22 23 24 25 25 25 24 23 22 22 22 22 23 23 22 21 20 19 17 16 15 13 11 9 7 5
3 6 5 6 3 2 1 5 4 1 4 8 9 10 8 6 7 14 15 17 17 18 20 22 23 23 24 25 25 25 24 23 23 22 22 22 22 22 22 21 19 18 17 15 14 12 10 8 6
2 2 2 6 3 3 3 3 3 3 3 5 8 8 8 6 5 7 11 15 17 17 17 20 21 21 23 24 25 25 26 27 26 23 21 21 22 23 23 22 20 19 18 16 14 12 11 9 8
3 1 3 3 1 4 4 3 4 5 4 3 4 7 7 4 3 4 6 8 11 15 18 20 21 21 22 24 25 27 27 27 25 24 23 23 23 25 25 24 22 20 18 16 14 13 11 10 9
1 1 2 2 3 4 1 5 3 5 6 7 4 4 5 5 1 3 6 8 8 11 16 19 22 22 24 25 26 27 27 26 25 25 25 25 24 24 24 23 22 20 18 16 15 13 13 12 11
1 2 3 4 4 1 3 6 2 5 6 6 4 1 2 3 3 5 8 11 13 14 14 16 18 21 23 24 26 27 27 28 28 28 28 27 25 24 22 22 21 20 18 16 15 14 13 12 12
Wind_Direction
152 153 148 141 63 65 275 284 292 81 64 9 84 98 114 66 78 168 143 154 167 159 152 158 137 137 136 114 114 109 105 102 88 86 82 79 77 81 77 77 77 79 86 88 94 108 117 126 122
160 157 150 104 89 70 278 289 74 279 132 109 76 81 50 91 112 137 150 165 171 158 155 153 139 138 126 120 115 114 111 94 92 86 82 79 78 75 80 84 84 84 87 92 96 107 117 129 127
163 150 110 97 105 166 183 184 194 114 161 149 104 74 82 109 140 152 164 164 165 165 154 148 135 137 127 122 116 112 99 98 92 87 85 78 75 73 78 92 97 90 90 92 103 111 119 129 129
160 156 72 87 226 231 192 180 208 156 103 84 122 70 84 129 155 171 161 165 171 180 164 143 145 138 130 125 118 112 106 101 98 89 85 82 76 77 80 92 106 106 97 99 109 115 124 132 143
133 107 66 86 263 286 133 180 170 144 106 116 142 142 101 155 182 176 165 169 184 181 151 145 143 138 140 128 123 121 118 108 91 83 78 80 79 79 86 94 108 114 109 104 111 120 129 139 152
100 82 70 200 242 176 248 179 172 103 119 130 100 103 139 166 178 168 167 177 199 193 158 146 146 148 145 143 140 129 114 102 97 92 87 85 86 85 89 98 105 112 115 112 115 122 131 150 146
116 89 189 208 211 170 235 17 81 131 115 56 132 90 145 166 168 166 174 190 180 168 164 152 151 153 149 151 131 123 117 109 102 100 96 94 96 97 98 102 106 112 117 118 119 127 142 144 140
112 93 173 276 222 206 239 99 97 143 120 132 168 166 172 164 174 173 181 188 179 173 183 182 157 157 160 137 134 131 124 117 115 108 103 100 100 101 104 109 113 115 120 125 128 134 138 128 126
146 64 217 236 173 193 195 126 125 127 141 135 160 166 174 162 174 176 178 176 175 177 192 189 176 161 146 145 139 134 130 126 120 116 109 102 100 99 102 105 109 113 116 117 121 121 112 110 115
103 118 213 161 213 205 129 183 153 154 136 97 135 165 155 169 177 181 178 175 178 179 182 188 181 175 165 154 146 140 136 132 126 120 115 110 105 102 100 102 105 108 109 110 112 112 111 110 106
160 179 181 189 153 118 166 152 197 140 232 201 184 157 163 172 183 187 183 189 187 187 189 178 174 170 166 161 154 149 142 137 134 129 123 118 112 106 106 105 103 105 107 108 106 105 107 108 106
158 180 170 178 205 175 173 211 254 212 246 227 205 179 170 176 185 190 188 189 187 189 197 187 183 170 169 170 163 154 146 140 136 133 128 121 118 113 112 113 107 106 104 105 105 105 102 104 103
169 186 157 184 206 184 214 248 253 240 206 189 177 176 181 184 188 191 197 196 196 195 199 205 205 192 185 179 171 158 153 148 145 140 133 127 124 120 117 116 114 111 109 106 104 102 101 98 98
174 163 170 201 214 231 254 272 224 234 186 172 176 185 191 192 193 192 197 200 200 202 208 213 214 210 197 185 179 168 163 157 151 146 141 134 129 123 120 118 116 114 112 108 105 101 99 96 94
137 102 3 203 192 244 206 280 237 211 183 178 187 193 196 199 199 203 202 203 207 211 213 213 212 208 202 190 184 177 170 164 158 154 147 143 136 130 126 123 119 116 114 111 109 106 101 98 95
64 54 11 309 141 169 128 269 316 194 182 188 194 197 200 202 207 208 209 210 209 211 213 213 214 210 205 196 190 184 177 170 166 163 155 151 146 138 133 131 126 121 119 114 112 109 108 101 97
5 219 202 306 198 123 170 269 301 184 194 202 203 206 208 208 210 211 211 210 211 212 213 214 216 213 207 198 192 188 182 176 174 170 164 160 155 148 143 135 130 126 124 120 117 118 112 109 103
203 213 229 221 209 183 211 262 272 212 210 219 219 215 216 215 217 207 206 208 211 213 215 218 217 213 207 200 194 190 186 181 180 177 173 170 164 158 152 145 134 129 129 125 124 123 120 114 108
131 200 232 297 134 207 236 268 265 243 226 236 230 225 219 220 218 209 205 207 207 210 213 216 215 209 206 200 198 195 191 187 186 184 182 178 174 167 161 155 145 137 133 128 129 128 127 124 121
197 187 258 66 157 176 305 276 270 222 231 229 227 221 214 212 206 204 204 206 207 209 212 217 216 212 208 207 205 204 197 191 194 190 188 185 183 177 170 165 160 151 148 136 129 126 131 136 141
90 179 190 192 359 317 328 298 313 322 285 272 230 223 217 207 201 197 200 205 207 211 214 217 214 213 210 205 203 200 201 200 196 196 195 191 189 186 180 176 172 166 160 154 147 142 136 129 128
220 187 156 118 83 220 48 271 297 342 11 31 74 202 205 198 202 199 199 203 210 216 219 218 216 214 212 208 208 212 211 206 206 203 199 197 193 193 190 188 184 180 174 174 170 165 164 148 139
198 104 101 87 90 45 300 86 270 354 36 16 20 118 184 196 202 201 205 209 212 217 219 219 219 219 216 213 216 217 218 220 215 206 206 203 200 197 197 195 194 192 190 189 188 186 183 176 182
135 71 42 53 77 29 245 137 284 345 305 307 14 90 157 186 194 204 208 210 213 213 217 219 220 221 218 217 219 220 220 217 215 214 211 209 206 203 201 201 200 201 202 202 202 200 199 202 204
75 69 352 354 6 220 220 70 246 335 320 280 98 89 95 169 200 202 202 206 211 213 216 220 222 222 217 219 222 222 222 223 225 223 219 215 213 210 208 206 206 205 205 206 206 207 210 216 221
158 144 156 206 205 255 17 233 257 128 58 87 84 83 88 109 172 198 205 210 217 221 224 224 224 224 222 221 223 222 222 226 230 229 225 222 221 218 214 211 209 209 208 208 209 211 216 221 224
188 182 156 102 52 60 233 299 320 140 68 62 64 71 72 82 135 177 203 213 217 222 228 231 231 231 229 229 227 224 224 227 227 224 223 223 220 219 217 215 214 212 211 210 212 217 219 220 222
131 203 75 2 161 260 282 263 223 179 154 118 68 68 65 85 119 192 214 226 227 227 227 227 232 237 236 233 230 229 230 227 225 224 224 224 221 218 218 215 213 213 211 212 215 220 224 224 218
58 326 36 121 140 186 243 260 213 167 170 153 142 87 65 60 99 212 226 233 236 239 237 237 236 234 232 233 233 232 228 225 222 224 232 229 222 221 218 214 210 210 211 212 216 220 221 219 218
240 190 147 131 262 91 154 269 2 148 159 155 165 217 255 243 238 248 248 238 235 237 239 240 237 232 233 236 233 231 228 225 225 228 227 223 221 216 216 211 206 206 210 214 217 219 219 223 226